| time (UTC) | temp F | wind direction | speed knots | gust knots | rain 1hr in | rain 24hr in | rain mn in | humidity % | barometer mb |
| 20260508204510 | 66 | 149 | 0.0 | 2.6 | 0.00 | 0.00 | 0.00 | 42 | 1022.3 |
| 20260508203028 | 65 | 295 | 0.0 | 3.5 | 0.00 | 0.00 | 0.00 | 43 | 1022.3 |
| 20260508201524 | 65 | 309 | 0.0 | 1.7 | 0.00 | 0.00 | 0.00 | 42 | 1022.5 |
| 20260508200021 | 64 | 20 | 0.0 | 0.9 | 0.00 | 0.00 | 0.00 | 42 | 1022.5 |
| 20260508194518 | 63 | 70 | 0.0 | 0.9 | 0.00 | 0.00 | 0.00 | 45 | 1022.7 |
| 20260508193016 | 61 | 299 | 0.0 | 1.7 | 0.00 | 0.00 | 0.00 | 48 | 1022.8 |
| 20260508191530 | 60 | 64 | 0.0 | 1.7 | 0.00 | 0.00 | 0.00 | 48 | 1022.9 |
| 20260508190008 | 59 | 120 | 0.0 | 0.9 | 0.00 | 0.00 | 0.00 | 49 | 1022.9 |
| 20260508184528 | 59 | 304 | 0.0 | 2.6 | 0.00 | 0.00 | 0.00 | 51 | 1023.1 |
| 20260508183032 | 59 | 311 | 0.0 | 1.7 | 0.00 | 0.00 | 0.00 | 48 | 1023.0 |
| 20260508181523 | 59 | 316 | 0.0 | 1.7 | 0.00 | 0.00 | 0.00 | 49 | 1022.9 |
| 20260508180024 | 61 | 314 | 0.0 | 0.9 | 0.00 | 0.00 | 0.00 | 48 | 1022.8 |
| 20260508174519 | 59 | 158 | 0.0 | 2.6 | 0.00 | 0.00 | 0.00 | 49 | 1022.7 |
| 20260508173018 | 57 | 174 | 0.0 | 0.9 | 0.00 | 0.00 | 0.00 | 53 | 1022.6 |
| 20260508171512 | 57 | 134 | 0.0 | 0.9 | 0.00 | 0.00 | 0.00 | 52 | 1022.6 |
| 20260508170024 | 57 | 204 | 0.0 | 2.6 | 0.00 | 0.00 | 0.00 | 53 | 1022.4 |
| 20260508164511 | 56 | 157 | 0.0 | 2.6 | 0.00 | 0.00 | 0.00 | 55 | 1022.3 |
| 20260508163004 | 55 | 225 | 0.0 | 0.9 | 0.00 | 0.00 | 0.00 | 57 | 1022.2 |
| 20260508161505 | 54 | 127 | 0.0 | 0.9 | 0.00 | 0.00 | 0.00 | 59 | 1022.0 |
| 20260508160011 | 53 | 157 | 0.0 | 2.6 | 0.00 | 0.00 | 0.00 | 59 | 1021.6 |
| 20260508154520 | 53 | 141 | 0.0 | 1.7 | 0.00 | 0.00 | 0.00 | 59 | 1021.9 |
| 20260508153020 | 53 | 133 | 0.0 | 2.6 | 0.00 | 0.00 | 0.00 | 60 | 1021.7 |
| 20260508151516 | 51 | 118 | 0.0 | 1.7 | 0.00 | 0.00 | 0.00 | 61 | 1021.8 |
| 20260508150020 | 51 | 154 | 0.0 | 0.9 | 0.00 | 0.00 | 0.00 | 61 | 1021.8 |
| 20260508144511 | 51 | 99 | 0.0 | 0.9 | 0.00 | 0.00 | 0.00 | 61 | 1021.8 |
| 20260508143013 | 51 | 104 | 0.0 | 0.9 | 0.00 | 0.00 | 0.00 | 62 | 1021.9 |
| 20260508141507 | 50 | 128 | 0.0 | 0.9 | 0.00 | 0.00 | 0.00 | 62 | 1021.9 |
| 20260508140024 | 50 | 148 | 0.0 | 0.9 | 0.00 | 0.00 | 0.00 | 63 | 1021.9 |
| 20260508134525 | 49 | 192 | 0.0 | 0.0 | 0.00 | 0.00 | 0.00 | 64 | 1021.5 |
| 20260508133024 | 48 | 122 | 0.0 | 0.9 | 0.00 | 0.00 | 0.00 | 64 | 1021.1 |
| 20260508131517 | 48 | 243 | 0.0 | 0.0 | 0.00 | 0.00 | 0.00 | 64 | 1021.0 |
| 20260508130020 | 48 | 127 | 0.0 | 0.9 | 0.00 | 0.00 | 0.00 | 64 | 1020.7 |
| 20260508124511 | 48 | 230 | 0.0 | 0.0 | 0.00 | 0.00 | 0.00 | 64 | 1020.4 |
| 20260508123029 | 49 | 223 | 0.0 | 1.7 | 0.00 | 0.00 | 0.00 | 64 | 1020.1 |
| 20260508121528 | 49 | 168 | 0.0 | 0.9 | 0.00 | 0.00 | 0.00 | 64 | 1019.8 |
| 20260508120035 | 49 | 308 | 0.0 | 2.6 | 0.00 | 0.00 | 0.00 | 65 | 1019.6 |
| 20260508114526 | 49 | 169 | 0.0 | 1.7 | 0.00 | 0.00 | 0.00 | 65 | 1019.6 |
| 20260508113024 | 49 | 210 | 0.0 | 0.0 | 0.00 | 0.00 | 0.00 | 65 | 1019.6 |
| 20260508111527 | 49 | 275 | 0.0 | 0.9 | 0.00 | 0.00 | 0.00 | 65 | 1019.4 |
| 20260508110019 | 49 | 234 | 0.0 | 0.9 | 0.00 | 0.00 | 0.00 | 65 | 1019.1 |
| 20260508104530 | 49 | 231 | 0.0 | 0.0 | 0.00 | 0.00 | 0.00 | 65 | 1019.0 |
| 20260508103028 | 49 | 133 | 0.0 | 0.0 | 0.00 | 0.00 | 0.00 | 65 | 1018.9 |
| 20260508101506 | 49 | 330 | 0.0 | 0.9 | 0.00 | 0.00 | 0.00 | 65 | 1018.8 |
| 20260508100006 | 49 | 165 | 0.0 | 0.0 | 0.00 | 0.00 | 0.00 | 65 | 1018.6 |
| 20260508094505 | 49 | 238 | 0.0 | 0.0 | 0.00 | 0.00 | 0.00 | 65 | 1018.6 |
| 20260508093024 | 49 | 303 | 0.0 | 0.9 | 0.00 | 0.00 | 0.00 | 64 | 1018.3 |
| 20260508091524 | 50 | 147 | 0.0 | 3.5 | 0.00 | 0.00 | 0.00 | 63 | 1018.1 |
| 20260508090018 | 50 | 314 | 0.9 | 5.2 | 0.00 | 0.00 | 0.00 | 62 | 1018.2 |
| 20260508084516 | 50 | 281 | 0.0 | 3.5 | 0.00 | 0.00 | 0.00 | 63 | 1018.3 |
| 20260508083012 | 50 | 158 | 0.0 | 2.6 | 0.00 | 0.00 | 0.00 | 63 | 1018.2 |
| 20260508081510 | 50 | 129 | 0.0 | 0.9 | 0.00 | 0.00 | 0.00 | 62 | 1018.0 |
| 20260508080007 | 51 | 264 | 0.0 | 0.9 | 0.00 | 0.00 | 0.00 | 62 | 1017.9 |
| 20260508074526 | 51 | 243 | 0.0 | 2.6 | 0.00 | 0.00 | 0.00 | 61 | 1017.8 |
| 20260508073025 | 51 | 224 | 0.0 | 0.9 | 0.00 | 0.00 | 0.00 | 61 | 1017.5 |
| 20260508071522 | 51 | 141 | 0.0 | 0.9 | 0.00 | 0.00 | 0.00 | 61 | 1017.4 |
| 20260508070020 | 52 | 135 | 0.0 | 0.0 | 0.00 | 0.00 | 0.00 | 60 | 1017.5 |
| 20260508064525 | 52 | 162 | 0.0 | 0.9 | 0.00 | 0.00 | 0.00 | 59 | 1017.4 |
| 20260508063013 | 53 | 195 | 0.0 | 0.9 | 0.00 | 0.00 | 0.00 | 59 | 1017.4 |
| 20260508061512 | 53 | 244 | 0.0 | 0.9 | 0.00 | 0.00 | 0.00 | 58 | 1017.2 |
| 20260508060029 | 54 | 325 | 0.0 | 2.6 | 0.00 | 0.00 | 0.00 | 58 | 1017.3 |
| 20260508054527 | 54 | 291 | 0.0 | 1.7 | 0.00 | 0.00 | 0.00 | 57 | 1017.4 |
| 20260508053030 | 55 | 222 | 0.0 | 0.9 | 0.00 | 0.00 | 0.00 | 56 | 1017.4 |
| 20260508051530 | 56 | 221 | 0.0 | 0.9 | 0.00 | 0.00 | 0.00 | 55 | 1017.3 |
| 20260508050021 | 56 | 215 | 0.0 | 3.5 | 0.00 | 0.00 | 0.00 | 55 | 1017.3 |
| 20260508044518 | 57 | 324 | 0.0 | 0.9 | 0.00 | 0.00 | 0.00 | 53 | 1017.3 |
| 20260508043020 | 58 | 337 | 0.0 | 0.9 | 0.00 | 0.00 | 0.00 | 52 | 1017.3 |
| 20260508041528 | 58 | 214 | 0.0 | 0.9 | 0.00 | 0.00 | 0.00 | 51 | 1017.1 |
| 20260508040029 | 59 | 319 | 0.0 | 2.6 | 0.00 | 0.00 | 0.00 | 50 | 1016.8 |
| 20260508034504 | 60 | 314 | 0.0 | 1.7 | 0.00 | 0.00 | 0.00 | 50 | 1016.7 |
| 20260508033004 | 62 | 272 | 0.0 | 2.6 | 0.00 | 0.00 | 0.00 | 49 | 1016.6 |
| 20260508031504 | 63 | 325 | 0.0 | 3.5 | 0.00 | 0.00 | 0.00 | 48 | 1016.4 |
| 20260508030003 | 65 | 321 | 0.0 | 1.7 | 0.00 | 0.00 | 0.00 | 46 | 1016.5 |
| 20260508024503 | 67 | 308 | 0.0 | 0.9 | 0.00 | 0.00 | 0.00 | 45 | 1016.5 |
| 20260508023004 | 70 | 188 | 0.0 | 0.9 | 0.00 | 0.00 | 0.00 | 42 | 1016.4 |
| 20260508021505 | 71 | 122 | 0.0 | 0.9 | 0.00 | 0.00 | 0.00 | 31 | 1016.2 |
| 20260508020010 | 72 | 222 | 0.0 | 0.9 | 0.00 | 0.00 | 0.00 | 37 | 1016.2 |
| 20260508014510 | 73 | 301 | 0.0 | 0.9 | 0.00 | 0.00 | 0.00 | 36 | 1016.3 |
| 20260508013003 | 73 | 7 | 0.0 | 0.0 | 0.00 | 0.00 | 0.00 | 35 | 1016.5 |
| 20260508011503 | 75 | 171 | 0.0 | 0.9 | 0.00 | 0.00 | 0.00 | 33 | 1016.6 |
| 20260508010004 | 75 | 63 | 0.0 | 0.9 | 0.00 | 0.00 | 0.00 | 32 | 1016.6 |
| 20260508004510 | 75 | 120 | 0.0 | 0.0 | 0.00 | 0.00 | 0.00 | 33 | 1016.7 |
| 20260508003006 | 75 | 68 | 0.0 | 0.9 | 0.00 | 0.00 | 0.00 | 31 | 1016.9 |
| 20260508001509 | 75 | 114 | 0.0 | 0.9 | 0.00 | 0.00 | 0.00 | 31 | 1017.1 |
| 20260508000011 | 75 | 58 | 0.0 | 0.9 | 0.00 | 0.00 | 0.00 | 30 | 1017.0 |
| 20260507234506 | 75 | 120 | 0.0 | 0.9 | 0.00 | 0.00 | 0.00 | 31 | 1017.1 |
| 20260507233005 | 73 | 60 | 0.0 | 0.9 | 0.00 | 0.00 | 0.00 | 31 | 1017.3 |
| 20260507231504 | 73 | 63 | 0.0 | 0.9 | 0.00 | 0.00 | 0.00 | 32 | 1017.5 |
| 20260507230013 | 73 | 120 | 0.0 | 0.9 | 0.00 | 0.00 | 0.00 | 35 | 1017.7 |
| 20260507224516 | 72 | 110 | 0.0 | 0.9 | 0.00 | 0.00 | 0.00 | 35 | 1018.0 |
| 20260507223014 | 72 | 15 | 0.0 | 0.9 | 0.00 | 0.00 | 0.00 | 33 | 1018.1 |
| 20260507221513 | 71 | 321 | 0.0 | 0.9 | 0.00 | 0.00 | 0.00 | 32 | 1018.2 |
| 20260507220009 | 71 | 297 | 0.0 | 1.7 | 0.00 | 0.00 | 0.00 | 29 | 1018.5 |
| 20260507214520 | 71 | 359 | 0.0 | 1.7 | 0.00 | 0.00 | 0.00 | 32 | 1018.6 |
| 20260507213006 | 70 | 221 | 0.0 | 1.7 | 0.00 | 0.00 | 0.00 | 35 | 1018.8 |
| 20260507211519 | 69 | 29 | 0.0 | 0.9 | 0.00 | 0.00 | 0.00 | 35 | 1019.1 |
| 20260507210017 | 71 | 55 | 0.0 | 0.9 | 0.00 | 0.00 | 0.00 | 36 | 1019.2 |